Location: Walnut Hills Mobile Home Park
(34.0445°N, 117.8184°W)
Time: 04:19:37
(UTC+00:00)

Cosmos 2322 Rocket - Pass Details

Date: 17 December 2025
Orbit: 831 x 850 km, 71.0° (Epoch: 20 January)

Event Time Altitude Azimuth Distance (km) Brightness Sun altitude
Exits shadow 13:03:34 43° 305° (NW) 1,176 2.5 -21.5°
Maximum altitude 13:05:06 57° 253° (WSW) 988 2.2 -21.2°
Drops below altitude 10° 13:10:36 10° 176° (S) 2,446 4.8 -20.1°
Sets 13:13:03 0° 172° (S) 3,374 5.6 -19.6°
